Date,TemperatureHighF,TemperatureAvgF,TemperatureLowF,DewpointHighF,DewpointAvgF,DewpointLowF,HumidityHigh,HumidityAvg,HumidityLow,PressureMaxIn,PressureMinIn,WindSpeedMaxMPH,WindSpeedAvgMPH,GustSpeedMaxMPH,PrecipitationSumIn
2013-1-1,40.2,37.7,32.0,31.3,29.7,25.5,80,73,66,30.04,29.92,4,1,7,0.04
2013-1-2,34.5,28.6,22.8,25.5,18.1,13.6,80,65,48,30.25,30.01,3,1,7,0.00
2013-1-3,36.9,26.0,13.9,22.4,18.0,11.5,92,72,51,30.27,30.15,4,1,6,0.00
2013-1-4,40.0,33.9,31.4,24.5,22.7,21.5,69,63,52,30.21,30.10,7,3,12,0.00
2013-1-5,41.4,33.8,27.4,26.8,23.2,20.3,83,66,51,30.39,30.16,5,2,12,0.00
2013-1-6,45.4,37.7,27.1,30.9,28.3,23.9,91,70,52,30.19,30.03,6,2,7,0.00
2013-1-7,41.5,35.7,22.1,30.9,26.8,20.1,92,70,56,30.44,30.16,3,1,7,0.00
2013-1-8,50.3,31.1,20.3,34.1,25.8,18.3,96,82,50,30.42,30.36,4,0,7,0.00
2013-1-9,47.7,34.3,21.9,40.5,30.0,20.1,96,85,66,30.40,30.23,4,1,6,0.00
2013-1-10,50.1,41.2,33.6,32.3,30.1,26.6,81,65,49,30.62,30.40,4,1,5,0.00
2013-1-11,44.4,39.9,33.9,40.6,34.9,29.1,96,83,68,30.49,30.11,4,1,9,0.27
2013-1-12,57.3,44.3,38.8,50.0,42.3,37.8,98,93,76,30.19,30.10,2,0,3,0.00
2013-1-13,57.6,48.6,39.5,53.4,46.8,38.6,98,94,83,30.10,29.94,3,1,6,0.00
2013-1-14,51.4,47.4,38.0,50.8,42.0,32.8,98,82,61,30.32,29.94,4,1,8,0.23
2013-1-15,39.9,37.0,32.5,36.7,34.2,30.8,96,90,78,30.36,30.17,2,0,3,0.46
2013-1-16,37.6,35.0,32.5,36.8,34.1,31.2,97,97,95,30.17,29.88,3,0,7,0.48
2013-1-17,41.8,37.8,33.6,38.0,30.9,27.2,97,77,60,30.15,29.99,4,1,7,0.00
2013-1-18,35.4,31.0,26.1,29.1,17.6,11.6,83,58,41,30.51,30.06,5,2,12,0.00
2013-1-19,56.9,41.6,29.8,30.6,26.6,21.3,76,57,33,30.37,29.91,6,3,15,0.00
2013-1-20,53.5,41.9,27.6,32.5,21.8,12.6,64,46,23,30.09,29.81,11,3,18,0.00
2013-1-21,39.7,29.9,23.4,22.6,17.5,7.8,74,60,44,30.11,29.84,6,2,9,0.00
2013-1-22,23.3,16.4,11.3,8.7,-0.2,-3.8,62,48,35,30.31,30.00,6,3,15,0.00
2013-1-23,24.1,16.4,9.6,7.1,1.4,-0.9,70,52,34,30.37,30.16,6,2,9,0.00
2013-1-24,26.1,18.7,13.6,12.4,7.7,1.0,87,64,41,30.54,30.12,5,2,11,0.00
2013-1-25,20.4,17.2,13.0,16.8,9.7,1.8,92,73,51,30.54,30.09,4,1,7,0.00
2013-1-26,30.1,23.1,16.7,23.6,19.3,13.8,92,85,71,30.45,30.10,2,0,4,0.10
2013-1-27,34.5,26.7,14.9,23.1,18.6,11.4,91,72,51,30.61,30.45,4,1,4,0.02
2013-1-28,39.7,34.2,28.4,38.7,31.5,23.5,96,90,73,30.47,30.05,3,1,6,0.24
2013-1-29,67.9,53.2,37.4,56.5,47.9,36.2,98,84,65,30.12,29.93,4,1,9,0.00
2013-1-30,68.8,56.0,41.1,61.6,53.2,38.6,100,90,75,29.93,29.22,8,2,21,1.36
2013-1-31,54.8,38.0,27.9,54.5,26.0,11.2,100,63,44,29.90,29.18,11,6,19,0.38
2013-2-1,28.9,23.3,16.9,21.8,10.7,4.3,87,59,44,30.38,29.83,6,3,11,0.00
2013-2-2,26.1,19.7,9.8,22.3,11.9,4.3,92,72,53,30.39,30.03,5,2,12,0.00
2013-2-3,33.5,26.5,19.0,27.8,22.6,17.1,94,86,64,30.04,29.83,5,1,9,0.00
2013-2-4,35.0,28.0,22.1,27.7,17.6,11.1,92,66,47,30.10,29.89,6,2,9,0.00
2013-2-5,36.7,31.8,26.9,33.1,29.6,25.7,95,92,84,29.95,29.86,2,0,3,0.03
2013-2-6,39.4,31.7,23.7,31.1,25.6,19.2,96,79,59,30.36,29.94,6,1,7,0.02
2013-2-7,37.9,30.4,20.6,27.9,22.8,17.8,92,75,56,30.44,30.22,5,1,6,0.00
2013-2-8,37.1,34.4,31.1,35.5,30.1,23.0,95,84,70,30.22,29.80,6,1,20,0.02
2013-2-9,38.6,29.2,20.9,22.8,17.8,14.2,79,63,39,30.41,29.98,8,4,19,0.00
2013-2-10,44.0,30.6,13.4,22.3,17.7,11.3,93,63,35,30.48,30.20,9,4,16,0.00
2013-2-11,60.4,45.6,35.0,48.4,37.0,22.3,96,76,27,30.21,29.67,12,5,19,0.20
2013-2-12,52.6,43.5,30.0,31.8,28.7,25.6,85,57,41,30.00,29.84,10,4,16,0.00
2013-2-13,41.9,33.1,24.4,32.9,28.5,22.1,95,84,62,29.95,29.69,4,1,6,0.02
2013-2-14,48.6,37.2,28.1,32.7,29.6,25.3,96,75,51,30.02,29.79,7,2,10,0.11
2013-2-15,51.8,39.2,28.5,37.4,32.0,24.9,94,76,52,30.04,29.95,5,2,10,0.13
2013-2-16,36.6,32.3,27.1,32.2,25.6,17.6,96,78,54,30.01,29.88,5,2,11,0.00
2013-2-17,30.9,24.8,20.7,19.5,13.6,6.9,78,62,45,30.23,29.88,10,5,17,0.00
2013-2-18,41.7,29.1,13.3,19.6,11.4,6.1,76,49,32,30.39,30.12,7,3,10,0.00
2013-2-19,47.9,37.6,27.6,41.7,27.9,17.7,89,69,48,30.12,29.67,10,4,16,0.23
2013-2-20,33.5,28.1,23.8,23.6,15.0,9.7,69,58,49,30.18,29.88,11,6,19,0.00
2013-2-21,36.5,27.6,22.9,19.6,15.2,11.6,78,60,48,30.36,30.15,7,3,12,0.00
2013-2-22,33.1,28.7,22.3,28.0,23.4,17.3,86,81,62,30.40,30.21,6,3,11,0.01
2013-2-23,44.5,36.8,31.7,39.9,34.0,28.0,95,90,83,30.20,29.83,6,1,7,0.01
2013-2-24,45.6,37.0,26.3,37.0,29.2,19.9,96,75,50,30.14,29.81,8,3,14,0.00
2013-2-25,47.0,33.6,21.6,26.0,22.7,17.6,87,67,41,30.24,30.14,4,1,5,0.00
2013-2-26,39.9,34.4,25.1,37.6,30.3,21.3,96,85,62,30.22,29.67,10,3,15,0.73
2013-2-27,51.0,42.5,35.5,43.4,36.2,33.9,97,80,57,29.70,29.57,9,2,16,0.06
2013-2-28,43.5,39.8,34.9,34.5,30.8,27.9,83,70,57,29.74,29.64,8,4,13,0.01
2013-3-1,43.6,37.8,33.4,32.1,28.6,23.8,83,70,52,29.91,29.73,7,3,11,0.00
2013-3-2,34.7,31.6,28.5,24.8,22.2,20.3,74,68,57,29.91,29.84,6,4,14,0.00
2013-3-3,38.0,31.6,27.8,23.1,21.0,18.6,82,65,52,29.94,29.84,7,4,13,0.00
2013-3-4,40.2,31.5,24.6,21.8,18.5,14.9,77,59,44,30.06,29.94,8,4,16,0.00
2013-3-5,49.9,35.0,19.0,27.7,20.9,15.2,90,60,25,30.10,29.83,8,2,12,0.00
2013-3-6,39.8,35.6,32.4,34.9,32.1,27.6,96,87,62,30.05,29.72,8,3,12,0.53
2013-3-7,49.2,38.7,29.3,33.1,29.2,25.8,88,70,50,30.19,30.04,7,3,13,0.00
2013-3-8,49.2,39.6,32.2,30.6,28.0,24.5,81,64,47,30.32,30.17,9,4,17,0.00
2013-3-9,59.8,39.8,22.9,29.9,25.5,19.9,91,61,26,30.39,30.27,4,1,5,0.00
2013-3-10,64.1,46.3,25.1,33.5,26.7,22.1,94,54,26,30.32,30.19,10,4,15,0.00
2013-3-11,59.4,51.4,42.1,49.2,39.7,22.2,85,66,34,30.20,29.85,12,6,21,0.00
2013-3-12,57.5,50.3,40.2,52.2,43.0,29.4,95,77,59,29.97,29.74,12,6,20,0.56
2013-3-13,46.5,38.3,28.9,31.5,25.1,19.0,83,60,40,30.07,29.91,11,5,21,0.00
2013-3-14,42.8,35.1,30.1,21.2,18.4,16.1,64,51,36,30.14,30.06,9,5,17,0.00
2013-3-15,54.8,39.9,25.1,35.4,26.0,17.3,80,59,40,30.11,29.79,11,4,19,0.00
2013-3-16,46.5,39.2,34.6,40.7,35.1,30.6,92,85,72,29.95,29.67,4,1,7,0.04
2013-3-17,40.9,36.1,33.6,33.1,28.4,23.9,93,75,55,30.27,29.94,5,2,8,0.00
2013-3-18,35.5,33.7,31.9,32.0,26.3,19.9,100,75,57,30.31,29.91,7,2,11,0.00
2013-3-19,55.0,40.8,32.2,39.2,28.2,9.0,97,68,18,29.94,29.74,16,4,23,0.26
2013-3-20,49.4,39.2,30.4,27.4,19.1,14.8,72,46,26,29.98,29.77,11,6,22,0.00
2013-3-21,35.0,30.4,25.0,25.5,15.0,9.4,69,53,37,29.91,29.79,9,4,15,0.00
2013-3-22,42.2,33.2,25.9,22.9,18.9,13.0,65,56,43,30.03,29.88,11,5,19,0.00
2013-3-23,51.4,36.0,21.1,26.2,22.4,16.9,86,61,35,30.05,29.93,8,2,12,0.00
2013-3-24,43.0,34.0,23.7,30.9,24.3,19.4,88,69,47,30.02,29.66,5,1,7,0.00
2013-3-25,37.1,34.0,31.4,35.0,32.1,29.9,95,93,88,29.72,29.54,5,1,5,0.53
2013-3-26,48.9,38.9,29.5,37.8,31.2,27.5,97,76,45,30.02,29.72,6,2,10,0.03
2013-3-27,48.0,40.8,35.7,35.5,29.9,27.2,79,66,48,30.13,30.01,8,3,16,0.00
2013-3-28,49.1,41.5,36.7,33.2,30.7,27.9,78,66,49,30.24,30.09,8,3,12,0.00
2013-3-29,55.4,44.4,34.4,36.0,30.9,28.0,81,60,37,30.26,30.15,6,2,10,0.00
2013-3-30,59.4,42.0,26.2,34.8,27.5,22.8,95,63,25,30.25,30.10,7,1,12,0.00
2013-3-31,47.9,43.2,31.6,45.3,38.0,26.9,96,83,57,30.11,29.75,6,2,10,0.21
2013-4-1,57.2,45.0,31.8,46.4,35.1,18.0,97,71,43,29.99,29.75,12,4,17,0.01
2013-4-2,45.9,34.8,25.1,23.2,19.2,14.8,82,55,31,30.19,30.00,8,2,12,0.00
2013-4-3,47.6,34.0,20.4,23.5,18.7,13.0,84,57,27,30.40,30.19,8,3,15,0.00
2013-4-4,49.3,35.6,18.0,22.0,16.7,13.0,86,50,27,30.43,30.07,9,3,13,0.00
2013-4-5,64.1,47.9,32.2,35.4,27.7,19.0,85,49,28,30.07,29.84,8,3,20,0.00
2013-4-6,56.4,43.9,27.2,28.9,23.2,19.3,79,46,25,30.33,30.08,8,3,15,0.00
2013-4-7,70.8,55.5,41.8,44.9,36.0,21.2,61,48,37,30.23,29.93,12,7,18,0.00
2013-4-8,80.0,67.5,49.7,51.6,46.9,43.1,81,50,29,30.06,29.91,9,4,17,0.00
2013-4-9,84.2,72.2,56.2,58.2,53.0,47.2,75,52,36,30.07,29.88,8,4,14,0.00
2013-4-10,90.4,76.3,58.9,60.4,55.9,51.1,77,51,32,29.94,29.74,10,4,14,0.00
2013-4-11,84.1,71.0,54.1,61.2,57.4,51.2,93,64,42,29.89,29.70,8,3,11,0.00
2013-4-12,64.4,55.3,48.4,58.8,52.5,42.2,97,90,78,29.80,29.59,7,2,12,0.61
2013-4-13,67.4,54.0,43.1,41.4,36.6,29.7,80,55,30,29.97,29.81,7,2,12,0.00
2013-4-14,66.9,51.5,36.0,42.7,36.5,33.2,91,60,32,30.16,29.97,4,1,9,0.00
2013-4-15,65.4,59.5,51.1,52.0,47.1,39.9,74,64,54,30.26,30.11,5,3,11,0.00
2013-4-16,76.2,63.9,55.2,60.9,54.9,47.1,85,73,57,30.27,30.07,7,4,13,0.00
2013-4-17,70.7,63.2,56.2,62.9,57.6,52.8,98,83,65,30.22,30.11,3,1,5,0.21
2013-4-18,75.2,65.5,60.2,65.6,58.6,53.6,93,79,66,30.21,29.95,6,3,11,0.03
2013-4-19,75.5,64.9,52.2,65.4,58.8,42.6,94,81,70,29.94,29.56,9,4,20,0.88
2013-4-20,57.4,49.1,39.2,42.1,32.0,26.7,71,53,35,30.37,29.78,7,3,13,0.00
2013-4-21,55.6,41.7,28.4,31.5,27.5,23.4,87,60,34,30.61,30.37,5,1,11,0.00
2013-4-22,58.7,46.4,33.5,36.9,33.0,29.8,89,62,40,30.58,30.39,6,2,11,0.00
2013-4-23,62.2,46.7,32.8,44.9,38.6,30.7,94,75,49,30.42,30.11,4,1,5,0.00
2013-4-24,75.8,57.2,38.2,60.4,49.4,36.6,96,77,49,30.11,29.73,8,2,15,0.04
2013-4-25,64.0,51.3,42.1,42.7,34.4,30.6,75,55,29,30.31,30.06,4,2,10,0.00
2013-4-26,63.7,49.5,35.1,39.7,35.3,30.3,94,62,32,30.48,30.31,4,1,7,0.00
2013-4-27,71.5,55.5,34.2,44.2,38.8,32.3,95,59,33,30.42,30.26,6,2,9,0.00
2013-4-28,63.4,54.2,45.6,50.7,44.3,38.3,93,71,46,30.27,30.12,11,3,19,0.12
2013-4-29,59.8,55.6,51.7,57.6,53.0,47.9,96,91,77,30.13,30.04,6,2,9,0.24
2013-4-30,61.2,57.3,53.7,55.6,54.1,52.6,97,89,80,30.30,30.10,0,0,0,0.00
2013-5-1,72.5,59.6,45.2,53.0,42.3,34.1,96,59,27,30.41,30.29,0,0,0,0.01
2013-5-2,72.1,57.3,39.2,48.8,44.4,37.6,96,66,36,30.43,30.31,1,0,1,0.00
2013-5-3,70.7,56.5,41.7,48.4,44.5,40.3,95,68,39,30.39,30.26,7,3,10,0.00
2013-5-4,70.4,55.5,37.5,48.6,42.5,35.9,97,65,35,30.33,30.16,8,2,12,0.00
2013-5-5,67.4,53.9,41.9,45.7,41.8,38.8,90,66,39,30.24,30.12,6,2,9,0.00
2013-5-6,62.7,53.9,40.5,56.4,49.4,38.4,95,85,76,30.19,30.07,6,2,12,0.01
2013-5-7,61.7,59.4,56.9,60.5,57.4,55.1,96,93,87,30.08,29.95,6,2,11,0.69
2013-5-8,70.5,60.6,54.2,59.1,56.2,52.4,98,86,59,30.00,29.91,4,0,6,0.14
2013-5-9,74.6,61.0,49.7,61.0,55.5,48.5,97,84,58,30.00,29.91,4,1,7,0.00
2013-5-10,83.9,68.7,50.4,64.6,59.3,49.6,98,76,41,30.01,29.84,6,2,12,0.95
2013-5-11,73.6,64.2,56.9,66.6,60.7,53.4,98,89,61,29.85,29.72,4,1,7,0.17
2013-5-12,60.9,55.5,45.7,53.6,37.8,27.7,86,54,32,30.03,29.76,6,3,11,0.00
2013-5-13,57.8,47.6,37.3,34.3,31.0,25.8,84,55,30,30.18,30.02,6,1,9,0.00
2013-5-14,62.3,47.7,29.6,45.0,35.6,28.1,96,67,35,30.24,30.04,4,1,7,0.00
2013-5-15,84.5,65.0,46.9,67.4,54.1,43.8,91,69,53,30.04,29.66,6,1,8,0.00
2013-5-16,81.4,70.8,63.6,66.5,60.6,53.6,92,72,42,29.93,29.73,6,2,8,0.07
2013-5-17,83.0,68.0,50.9,62.3,55.7,49.6,97,68,45,30.12,29.93,3,1,6,0.00
2013-5-18,68.2,64.1,58.5,58.8,55.1,48.7,92,73,51,30.21,30.11,4,2,8,0.00
2013-5-19,70.8,64.3,58.5,64.9,60.9,56.5,94,89,80,30.20,30.07,4,1,6,0.00
2013-5-20,83.4,73.1,62.5,69.8,66.0,61.0,97,80,59,30.10,29.95,4,1,7,0.00
2013-5-21,89.1,76.3,64.3,72.0,68.1,62.5,96,78,54,29.98,29.83,5,2,8,0.00
2013-5-22,90.7,76.8,64.9,71.9,66.8,63.3,97,75,45,29.92,29.78,7,2,9,0.22
2013-5-23,79.0,69.0,63.4,69.1,65.2,60.9,97,88,68,29.87,29.71,4,1,8,0.13
2013-5-24,63.8,54.2,45.2,62.6,46.3,34.1,97,75,55,30.19,29.74,5,2,16,0.02
2013-5-25,65.7,53.4,39.8,41.1,36.7,34.1,82,55,35,30.21,30.09,6,3,13,0.00
2013-5-26,71.3,56.8,39.3,42.9,39.0,35.4,90,55,31,30.23,30.13,5,2,18,0.00
2013-5-27,68.3,56.6,39.4,52.3,44.8,37.8,96,68,39,30.30,30.18,4,1,7,0.00
2013-5-28,78.9,63.9,54.5,66.8,58.5,50.8,94,83,63,30.20,30.04,3,0,6,0.05
2013-5-29,90.0,74.0,56.5,68.3,63.2,55.5,98,73,42,30.10,30.04,6,2,9,0.00
2013-5-30,92.9,77.8,60.9,71.3,66.0,59.8,97,70,39,30.18,30.07,3,1,6,0.00
2013-5-31,91.2,79.8,66.3,67.8,64.7,58.7,92,63,35,30.13,29.99,5,2,9,0.00
2013-6-1,91.7,81.4,68.8,70.6,67.2,63.5,85,63,47,30.01,29.86,5,2,12,0.00
2013-6-2,83.2,75.0,69.4,73.2,67.4,63.4,95,78,65,29.86,29.80,5,2,9,0.77
2013-6-3,79.0,70.5,62.1,69.7,63.4,53.7,98,80,55,29.97,29.83,2,1,6,0.49
2013-6-4,76.9,63.3,46.9,54.8,49.5,42.7,91,64,37,30.13,29.97,3,1,5,0.00
2013-6-5,78.8,65.8,49.6,58.9,54.6,48.5,97,71,43,30.17,30.02,5,1,12,0.00
2013-6-6,69.4,64.8,63.1,63.6,58.2,49.2,97,80,57,30.05,29.85,4,2,8,0.64
2013-6-7,68.8,65.5,63.1,67.9,64.2,61.6,97,96,91,29.85,29.65,2,0,6,0.27
2013-6-8,79.3,68.6,60.7,64.4,61.4,58.5,97,79,55,30.10,29.73,3,1,5,0.00
2013-6-9,81.4,70.0,57.6,68.0,63.1,56.5,97,80,58,30.19,30.08,4,1,8,0.00
2013-6-10,81.4,71.2,67.6,73.8,68.7,63.7,97,92,76,30.10,29.76,5,1,8,1.12
2013-6-11,80.3,71.5,64.1,69.3,65.9,63.5,98,84,65,29.84,29.77,6,2,10,0.02
2013-6-12,87.7,76.5,63.7,71.9,67.4,61.6,95,75,51,29.86,29.76,3,1,6,0.00
2013-6-13,81.1,71.5,66.6,70.3,65.8,56.4,96,83,66,29.78,29.47,6,2,14,0.54
2013-6-14,79.9,69.2,60.0,59.9,56.4,53.9,88,66,43,29.98,29.62,3,1,8,0.00
2013-6-15,82.3,68.5,54.5,62.2,56.2,50.8,97,69,34,30.09,29.98,3,1,6,0.00
2013-6-16,80.0,69.6,59.2,70.4,62.5,55.6,92,79,63,30.03,29.87,6,1,11,0.04
2013-6-17,86.6,75.0,64.6,70.8,66.2,62.2,94,76,53,29.95,29.86,4,1,7,0.00
2013-6-18,77.6,70.9,64.4,71.0,67.2,63.2,97,89,77,29.90,29.79,3,0,5,0.11
2013-6-19,80.3,68.5,59.4,64.3,60.3,55.3,98,78,43,30.14,29.90,2,0,5,0.69
2013-6-20,80.4,68.6,56.0,66.7,61.1,54.9,98,79,56,30.25,30.14,5,2,11,0.00
2013-6-21,84.2,72.2,56.1,63.7,58.2,52.5,92,63,47,30.28,30.20,5,2,7,0.00
2013-6-22,87.5,74.4,58.2,70.0,63.8,53.0,97,72,50,30.24,30.09,4,1,9,0.00
2013-6-23,89.2,77.4,64.4,72.9,68.3,63.0,97,75,45,30.17,30.04,3,1,7,0.00
2013-6-24,89.5,77.7,68.6,73.4,68.9,65.0,94,76,51,30.12,30.01,6,1,11,0.00
2013-6-25,92.8,78.9,66.8,73.7,68.6,63.1,97,74,46,30.03,29.86,5,2,8,0.00
2013-6-26,89.6,75.4,64.7,73.6,67.9,62.9,95,79,56,29.93,29.80,4,1,6,0.00
2013-6-27,86.8,74.3,65.1,75.0,69.4,63.9,98,86,65,29.82,29.60,5,1,8,0.37
2013-6-28,86.8,75.0,66.8,71.8,67.4,63.4,94,78,54,29.61,29.45,6,1,9,0.00
2013-6-29,87.7,74.4,64.4,68.2,64.5,61.9,96,74,44,29.70,29.51,7,1,19,0.99
2013-6-30,89.1,74.0,63.9,74.3,69.2,63.3,98,86,60,29.83,29.69,4,1,8,0.02
2013-7-1,84.5,75.5,69.8,73.3,70.6,68.8,98,86,65,29.95,29.82,5,2,14,0.03
2013-7-2,85.3,77.2,73.3,73.4,71.4,69.8,94,83,65,30.13,29.95,6,3,15,0.02
2013-7-3,86.3,77.1,72.9,75.6,71.8,69.4,91,84,67,30.21,30.12,4,2,7,0.00
2013-7-4,89.5,80.5,71.6,76.2,72.5,69.4,94,78,59,30.22,30.13,5,2,8,0.00
2013-7-5,90.8,82.4,72.4,76.2,72.9,69.9,93,74,59,30.19,30.08,5,2,9,0.00
2013-7-6,93.3,82.4,70.6,74.9,72.1,68.3,95,73,49,30.17,30.03,4,2,8,0.00
2013-7-7,91.3,76.8,69.2,74.4,69.9,66.8,97,81,57,30.08,29.98,7,1,14,0.68
2013-7-8,87.7,75.8,68.2,72.5,69.0,67.3,98,81,53,30.10,30.02,4,1,6,0.00
2013-7-9,84.5,75.8,69.5,74.7,70.9,67.2,94,85,68,30.10,29.98,4,1,6,0.13
2013-7-10,86.1,77.8,71.5,75.6,72.2,68.9,95,83,64,29.99,29.84,5,1,10,0.02
2013-7-11,84.8,75.8,69.5,71.9,68.8,65.5,95,80,57,29.92,29.82,2,0,6,0.00
2013-7-12,78.8,69.9,64.9,71.2,66.9,63.7,97,90,75,30.06,29.92,2,0,3,0.27
2013-7-13,84.8,75.1,68.0,73.3,70.0,66.8,97,85,64,30.25,30.04,3,1,6,0.10
2013-7-14,89.9,79.7,70.8,75.1,72.2,69.3,97,80,55,30.33,30.25,4,1,9,0.00
2013-7-15,94.5,79.8,66.9,77.2,71.9,65.7,98,79,51,30.30,30.18,2,0,4,0.00
2013-7-16,93.6,82.2,72.8,78.4,73.5,71.2,96,77,49,30.25,30.17,2,0,4,0.00
2013-7-17,95.0,82.8,70.7,78.1,73.4,69.5,97,76,45,30.23,30.07,2,0,5,0.00
2013-7-18,96.8,84.0,71.0,79.5,75.0,69.8,97,77,49,30.11,29.98,3,0,7,0.00
2013-7-19,96.7,82.8,70.9,79.7,74.8,68.3,96,79,50,30.00,29.83,6,1,11,0.75
2013-7-20,88.6,77.6,70.4,78.2,71.8,69.1,97,84,55,29.89,29.78,5,1,8,0.15
2013-7-21,84.1,75.7,68.6,76.4,71.6,67.4,97,88,71,29.94,29.87,3,0,5,0.23
2013-7-22,87.7,75.6,67.6,76.3,71.6,66.7,98,89,64,29.94,29.75,3,0,6,0.44
2013-7-23,85.5,75.6,70.7,73.6,70.4,67.5,98,85,58,29.76,29.64,4,1,8,0.08
2013-7-24,81.0,73.1,61.0,69.0,63.6,57.9,94,74,51,29.94,29.68,4,1,6,0.00
2013-7-25,78.0,65.6,54.4,64.2,57.8,51.9,94,77,55,30.05,29.94,2,0,5,0.00
2013-7-26,83.5,69.4,55.8,65.7,59.5,54.8,98,74,43,30.11,30.01,3,1,7,0.00
2013-7-27,81.8,70.5,58.8,72.5,65.8,57.8,98,86,68,30.04,29.90,4,1,7,0.00
2013-7-28,85.3,74.3,65.0,69.8,67.3,63.0,94,80,51,29.99,29.86,5,1,6,0.06
2013-7-29,81.1,68.4,54.9,63.8,58.1,54.1,98,73,43,30.16,29.99,3,1,5,0.01
2013-7-30,82.3,68.7,54.6,64.0,59.3,53.5,97,75,47,30.23,30.13,3,0,6,0.00
2013-7-31,80.5,69.9,59.8,69.3,64.3,58.6,97,83,65,30.15,29.99,4,1,7,0.00
2013-8-1,83.5,74.0,67.4,72.1,68.4,66.0,97,84,63,29.99,29.80,3,1,5,0.12
2013-8-2,85.2,73.4,63.0,67.9,63.1,57.5,97,73,41,29.95,29.86,5,1,10,0.00
2013-8-3,76.5,68.2,63.8,70.6,65.0,60.7,96,90,77,29.96,29.91,3,1,9,0.11
2013-8-4,80.4,68.5,57.3,64.0,59.0,53.8,98,75,45,30.04,29.93,4,1,8,0.01
2013-8-5,80.5,66.1,51.9,61.7,56.3,50.5,97,74,37,30.11,30.01,3,0,7,0.00
2013-8-6,78.0,67.7,60.7,69.6,64.1,58.4,96,89,72,30.06,30.00,2,0,5,0.36
2013-8-7,83.2,73.7,67.2,73.5,69.4,65.1,96,87,71,30.06,29.96,4,1,8,0.06
2013-8-8,85.1,74.5,66.9,74.8,71.5,66.0,98,91,70,30.02,29.94,4,1,8,0.15
2013-8-9,86.3,77.0,71.9,76.7,73.7,70.2,97,90,68,29.97,29.85,4,2,7,0.31
2013-8-10,84.3,73.3,65.8,70.7,66.8,63.3,98,82,52,30.07,29.95,3,0,6,0.00
2013-8-11,85.9,73.9,62.7,71.5,66.5,61.8,98,80,56,30.11,29.98,4,1,6,0.00
2013-8-12,87.0,75.6,65.7,72.4,68.2,64.8,98,80,52,30.02,29.89,2,0,4,0.00
2013-8-13,84.5,73.9,67.5,71.9,67.4,56.7,98,81,60,29.89,29.73,4,1,7,0.58
2013-8-14,73.9,63.7,53.4,56.6,52.3,48.0,89,68,50,30.10,29.84,5,1,10,0.00
2013-8-15,77.3,62.2,46.9,58.0,52.2,45.8,98,74,41,30.20,30.09,3,0,6,0.00
2013-8-16,80.1,63.0,48.0,61.8,55.0,46.9,100,78,45,30.20,30.13,3,0,5,0.00
2013-8-17,81.2,66.6,50.9,63.2,57.0,49.8,98,75,44,30.27,30.19,4,1,6,0.00
2013-8-18,71.4,64.6,60.2,63.8,61.4,58.8,97,90,69,30.27,30.17,1,0,2,0.22
2013-8-19,77.2,65.6,57.4,69.4,63.0,56.6,98,91,74,30.19,30.06,3,0,5,0.03
2013-8-20,85.9,70.2,59.3,71.4,63.9,58.4,98,83,47,30.18,30.09,2,0,4,0.01
2013-8-21,88.2,73.3,59.1,74.2,67.1,58.2,98,82,60,30.19,30.05,4,1,7,0.00
2013-8-22,87.2,76.1,67.4,71.7,67.3,62.2,95,76,56,30.08,29.91,4,1,6,0.00
2013-8-23,76.3,68.4,62.6,69.1,65.9,61.4,97,92,75,30.14,29.94,2,0,3,0.15
2013-8-24,83.2,67.5,57.0,65.2,59.9,55.8,98,80,45,30.33,30.13,3,0,5,0.02
2013-8-25,82.9,67.9,53.0,66.6,59.1,52.1,98,76,46,30.41,30.25,4,1,9,0.00
2013-8-26,87.5,74.4,60.4,66.7,63.4,58.1,94,71,47,30.26,29.97,5,2,7,0.00
2013-8-27,90.2,78.2,69.8,73.7,69.5,64.6,88,75,53,29.99,29.87,5,1,8,0.00
2013-8-28,77.1,72.8,69.7,72.2,70.5,68.5,97,93,83,29.91,29.80,3,1,6,0.13
2013-8-29,86.1,74.8,66.7,72.8,69.4,65.2,98,85,57,30.00,29.84,2,0,4,0.01
2013-8-30,88.8,75.6,62.9,72.1,68.2,62.0,98,80,54,30.02,29.84,5,2,8,0.00
2013-8-31,89.6,77.9,71.6,75.0,71.5,68.5,95,82,56,29.86,29.76,4,1,5,0.02
2013-9-1,89.7,76.4,66.2,74.0,70.0,65.0,98,82,56,29.83,29.74,4,1,6,0.15
2013-9-2,90.6,77.7,68.5,74.8,70.6,67.6,98,81,51,29.80,29.69,5,1,8,0.16
2013-9-3,83.4,73.2,60.8,69.8,62.2,55.0,91,71,41,29.97,29.72,4,1,8,0.00
2013-9-4,83.0,67.0,52.9,59.8,55.4,51.1,97,70,36,30.10,29.98,4,1,7,0.00
2013-9-5,81.6,66.9,54.4,64.2,56.1,49.2,95,71,37,30.14,30.02,5,1,8,0.00
2013-9-6,75.6,61.0,49.6,51.7,49.0,45.1,94,69,34,30.27,30.14,2,0,5,0.00
2013-9-7,82.3,63.2,45.3,60.5,53.3,44.0,97,74,40,30.15,29.93,3,1,6,0.00
2013-9-8,84.9,71.7,60.8,69.5,63.2,56.0,96,76,55,30.06,29.89,2,0,5,0.03
2013-9-9,76.6,66.1,57.6,64.7,56.6,49.7,89,72,58,30.20,30.06,4,1,8,0.00
2013-9-10,93.5,79.0,65.5,74.5,69.9,63.2,95,75,52,30.16,30.05,5,2,13,0.00
2013-9-11,94.9,80.4,69.4,75.6,72.0,68.0,97,78,50,30.14,29.98,4,1,9,0.00
2013-9-12,92.1,76.8,68.9,74.3,68.3,60.4,97,77,42,29.98,29.72,7,1,7,0.00
2013-9-13,76.0,66.3,53.1,64.7,56.1,47.5,89,71,44,29.96,29.71,4,1,10,0.00
2013-9-14,68.3,55.6,43.4,49.1,45.3,41.1,95,71,44,30.17,29.95,4,1,8,0.00
2013-9-15,77.9,58.8,39.9,57.3,49.6,38.9,98,75,45,30.24,30.07,4,1,8,0.00
2013-9-16,73.4,61.6,52.3,60.2,56.0,50.4,96,83,52,30.25,30.03,2,0,4,0.15
2013-9-17,69.7,54.8,42.3,51.2,44.2,38.2,95,71,33,30.44,30.25,4,1,5,0.01
2013-9-18,72.1,54.4,38.3,52.8,45.6,37.3,98,76,44,30.34,30.18,4,1,7,0.00
2013-9-19,79.4,59.5,44.0,59.8,52.3,42.9,97,80,51,30.20,30.07,3,1,7,0.00
2013-9-20,81.8,65.6,49.4,63.9,57.8,48.3,98,78,52,30.08,29.93,5,1,7,0.00
2013-9-21,69.2,64.7,59.6,64.0,61.2,58.7,97,89,79,29.93,29.67,6,2,11,0.78
2013-9-22,71.6,59.8,49.6,59.8,52.4,46.5,99,79,45,29.97,29.73,4,1,10,0.01
2013-9-23,67.0,55.7,44.0,49.8,45.5,42.1,93,71,45,30.11,29.97,3,1,5,0.00
2013-9-24,74.9,53.6,36.7,51.2,44.5,35.7,98,76,37,30.14,29.96,3,0,5,0.00
2013-9-25,77.4,56.3,40.0,52.6,46.2,39.0,98,74,34,30.01,29.88,3,0,6,0.00
2013-9-26,77.8,58.7,45.3,56.1,50.1,44.0,97,77,40,30.08,29.94,3,0,5,0.00
2013-9-27,70.9,58.0,47.3,59.4,53.1,45.8,96,85,63,30.24,30.08,2,0,4,0.00
2013-9-28,67.2,57.1,47.0,58.9,52.4,45.6,98,86,59,30.32,30.22,2,0,5,0.00
2013-9-29,74.8,56.1,41.3,57.5,49.0,40.2,98,81,41,30.22,30.06,3,0,7,0.01
2013-9-30,77.7,59.0,44.5,57.2,51.3,43.4,98,79,44,30.10,29.98,3,0,5,0.00
2013-10-1,82.7,63.7,49.2,62.9,55.9,48.1,98,79,44,30.08,29.96,4,0,5,0.00
2013-10-2,86.3,66.8,52.5,64.9,58.2,51.4,98,77,44,30.09,29.99,4,1,8,0.00
2013-10-3,83.8,67.0,53.3,66.2,60.4,52.2,98,81,51,30.13,30.03,3,0,4,0.00
2013-10-4,87.2,70.6,57.8,68.0,63.1,56.5,98,80,48,30.10,30.00,3,1,6,0.00
2013-10-5,88.6,74.3,64.2,69.0,65.0,62.0,94,75,48,30.09,29.97,4,1,6,0.00
2013-10-6,89.3,73.8,59.2,69.6,63.6,58.1,98,74,43,30.00,29.87,6,2,13,0.00
2013-10-7,73.2,64.0,49.1,67.8,58.6,45.3,96,83,60,30.07,29.70,7,2,11,0.69
2013-10-8,69.5,54.4,41.9,50.9,46.2,40.6,97,76,45,30.31,30.07,2,0,5,0.00
2013-10-9,62.3,52.7,43.9,50.7,45.7,41.8,97,79,50,30.36,30.27,3,0,5,0.00
2013-10-10,54.8,53.0,51.2,53.4,50.4,46.5,97,91,78,30.26,30.04,1,0,4,2.52
2013-10-11,60.4,56.4,53.1,59.8,55.8,52.2,100,98,97,30.04,29.99,1,0,5,0.82
2013-10-12,70.2,61.5,56.2,60.3,57.8,54.1,98,89,60,30.18,30.02,5,1,6,0.32
2013-10-13,59.9,57.7,56.2,57.2,56.2,55.3,97,95,89,30.33,30.19,1,0,4,0.05
2013-10-14,68.2,58.5,50.0,57.4,54.5,48.6,97,87,67,30.35,30.24,2,0,4,0.00
2013-10-15,71.6,59.3,47.7,59.8,53.0,46.5,100,82,56,30.24,30.07,3,0,5,0.00
2013-10-16,69.8,61.0,51.9,61.9,57.1,49.0,95,87,75,30.08,29.89,4,1,6,0.00
2013-10-17,75.4,64.2,56.2,64.6,59.8,47.3,97,86,64,29.90,29.68,6,1,8,0.08
2013-10-18,66.3,55.7,42.2,47.6,43.8,40.0,92,66,42,30.01,29.85,5,2,7,0.00
2013-10-19,61.3,49.7,38.2,56.1,46.3,37.2,97,88,68,30.00,29.77,4,1,11,0.19
2013-10-20,62.7,49.4,37.7,41.5,38.5,34.9,92,68,39,30.09,29.90,6,2,10,0.00
2013-10-21,67.9,50.5,32.8,47.1,40.0,31.6,98,71,39,30.15,29.93,6,2,11,0.00
2013-10-22,59.8,52.1,37.4,48.8,42.2,33.4,87,70,39,29.93,29.83,5,1,8,0.00
2013-10-23,52.0,42.5,32.4,40.9,35.8,30.9,96,79,50,29.91,29.70,3,1,5,0.00
2013-10-24,49.6,41.6,33.0,36.7,32.2,27.6,87,70,47,30.14,29.91,7,2,10,0.00
2013-10-25,53.2,40.3,30.4,36.1,31.1,27.8,92,72,44,30.32,30.14,5,1,8,0.00
2013-10-26,55.4,42.7,28.6,34.3,29.4,25.3,92,63,35,30.32,29.94,7,2,13,0.00
2013-10-27,59.5,46.6,33.3,37.9,33.3,30.2,89,62,36,30.15,29.95,6,2,9,0.00
2013-10-28,61.2,42.3,28.1,41.5,34.1,26.6,96,76,42,30.30,30.15,2,0,4,0.00
2013-10-29,61.8,44.8,31.2,43.6,37.7,29.7,97,79,47,30.41,30.30,2,0,4,0.00
2013-10-30,67.7,55.2,42.7,54.4,48.5,40.2,93,79,59,30.32,30.14,3,0,5,0.00
2013-10-31,67.2,61.1,54.3,59.9,57.2,51.6,95,87,74,30.17,29.71,5,2,12,0.04
2013-11-1,73.4,62.7,46.2,62.3,53.4,43.8,95,75,38,29.70,29.49,7,3,13,0.38
2013-11-2,62.4,50.8,41.8,51.0,43.7,38.8,97,79,50,29.89,29.65,6,1,10,0.00
2013-11-3,56.2,46.7,33.5,42.1,33.1,23.0,82,62,30,30.48,29.89,4,1,7,0.00
2013-11-4,46.0,35.5,25.4,29.1,24.6,21.3,87,66,42,30.65,30.47,3,0,5,0.00
2013-11-5,55.0,42.3,29.6,43.5,36.0,27.1,92,79,61,30.64,30.44,3,0,4,0.00
2013-11-6,68.3,57.6,47.2,52.6,48.9,43.2,88,73,56,30.45,30.00,6,3,12,0.00
2013-11-7,59.5,52.7,37.8,54.4,44.7,25.1,95,75,48,30.08,29.86,5,2,8,0.28
2013-11-8,49.6,40.5,29.0,32.3,27.6,24.5,85,61,41,30.32,30.07,6,1,13,0.00
2013-11-9,55.1,40.3,24.9,32.4,28.1,22.7,94,65,41,30.35,30.01,6,2,11,0.00
2013-11-10,57.3,46.9,38.6,37.5,30.9,27.8,70,55,39,30.23,29.98,8,3,14,0.00
2013-11-11,57.1,45.2,29.7,35.3,30.8,25.9,89,59,36,30.30,30.01,5,2,10,0.00
2013-11-12,50.6,37.5,27.3,38.6,23.8,15.1,76,58,41,30.42,29.99,5,2,8,0.00
2013-11-13,42.0,33.5,27.5,24.7,20.7,18.4,75,60,43,30.50,30.38,4,2,9,0.00
2013-11-14,57.0,37.9,22.5,23.3,18.9,13.4,79,52,19,30.38,30.22,5,1,9,0.00
2013-11-15,60.4,39.5,22.8,33.9,25.4,19.1,92,63,21,30.29,30.18,3,0,9,0.00
2013-11-16,61.4,48.6,34.3,49.7,43.8,32.8,96,84,63,30.32,30.20,4,1,7,0.03
2013-11-17,61.9,56.3,51.1,58.8,53.7,49.1,95,91,84,30.20,29.66,7,4,16,0.02
2013-11-18,63.3,56.7,45.4,59.1,36.5,26.0,89,50,27,29.95,29.64,12,4,20,0.09
2013-11-19,46.2,40.1,27.6,30.0,26.7,23.0,84,59,49,30.39,29.95,5,2,13,0.00
2013-11-20,46.9,33.0,21.7,28.9,21.6,15.3,94,66,32,30.58,30.38,4,1,5,0.00
2013-11-21,46.7,35.1,23.4,37.6,29.9,20.0,93,82,66,30.59,30.38,2,0,4,0.00
2013-11-22,54.0,47.4,40.3,49.4,44.0,36.8,96,88,77,30.37,30.02,4,0,6,0.00
2013-11-23,50.9,38.1,26.6,44.3,25.9,12.0,86,62,42,30.24,30.06,6,3,11,0.00
2013-11-24,29.3,24.2,20.0,15.5,10.6,6.7,70,56,46,30.53,30.24,6,3,10,0.00
2013-11-25,36.8,27.1,16.5,13.0,10.5,7.7,68,51,31,30.57,30.32,6,2,11,0.00
2013-11-26,34.7,33.5,32.5,33.6,26.0,12.8,96,77,42,30.32,29.68,3,1,6,1.34
2013-11-27,38.4,34.5,27.5,36.7,29.7,16.6,100,83,61,30.04,29.57,5,2,12,0.11
2013-11-28,36.5,29.2,24.6,22.8,17.4,14.0,78,62,46,30.48,30.05,5,2,10,0.01
2013-11-29,40.1,29.5,19.7,26.2,21.7,17.2,90,74,49,30.74,30.47,4,1,5,0.00
2013-11-30,35.7,26.2,15.5,23.9,18.8,13.6,100,75,51,30.74,30.38,4,1,7,0.00
2013-12-1,37.7,28.8,17.4,30.1,23.4,15.5,94,81,67,30.38,30.03,3,0,5,0.00
2013-12-2,44.5,38.1,34.6,34.7,32.2,30.0,92,79,66,30.03,29.88,1,0,2,0.00
2013-12-3,51.4,38.6,31.3,39.6,33.9,29.5,94,84,62,29.99,29.89,2,0,3,0.00
2013-12-4,57.7,41.0,29.4,46.3,37.2,27.8,97,87,64,30.10,29.98,3,0,4,0.00
2013-12-5,66.7,53.7,38.3,57.8,50.4,37.0,98,89,73,30.06,29.90,5,1,8,0.14
2013-12-6,59.3,43.1,35.1,58.4,41.9,34.1,97,95,94,30.19,29.86,3,1,4,1.54
2013-12-7,38.2,33.4,25.8,34.4,28.3,21.1,97,82,66,30.57,30.16,5,1,7,0.01
2013-12-8,28.3,25.3,21.9,27.1,22.0,18.1,95,87,73,30.59,30.33,2,0,3,0.00
2013-12-9,35.0,31.2,27.6,33.1,30.0,26.6,97,95,92,30.33,30.05,2,0,4,0.50
2013-12-10,35.6,31.5,22.3,32.8,26.6,15.4,96,83,61,30.23,30.01,6,1,14,0.15
2013-12-11,35.5,25.3,17.2,21.5,16.5,12.4,90,70,49,30.41,30.22,5,1,8,0.06
2013-12-12,31.2,24.3,19.1,23.6,10.7,3.8,85,57,35,30.45,30.24,5,2,8,0.00
2013-12-13,40.2,27.9,18.1,20.6,15.1,7.4,82,59,42,30.32,30.22,5,2,8,0.03
2013-12-14,36.1,30.8,25.4,32.5,28.2,20.7,96,90,82,30.34,29.76,4,0,4,0.15
2013-12-15,38.8,32.2,28.1,36.4,27.4,22.5,97,83,66,29.94,29.67,8,2,10,0.11
2013-12-16,34.1,29.2,25.8,25.3,21.5,17.6,83,73,66,30.19,29.94,4,1,12,0.00
2013-12-17,34.0,29.5,23.9,29.7,26.4,22.2,94,88,83,30.16,29.96,3,1,5,0.03
2013-12-18,35.7,29.1,19.8,26.1,22.0,16.6,95,76,60,30.23,30.02,5,2,10,0.00
2013-12-19,53.7,35.4,18.1,31.8,25.1,15.7,94,69,41,30.20,30.06,4,1,7,0.00
2013-12-20,54.0,45.6,31.8,37.9,32.6,28.8,91,63,45,30.10,29.96,4,2,8,0.00
2013-12-21,65.2,58.5,49.7,58.5,47.2,35.4,79,66,52,29.99,29.83,6,3,9,0.00
2013-12-22,68.5,63.1,57.7,62.5,58.7,54.0,96,85,73,29.96,29.73,8,4,16,0.24
2013-12-23,59.5,49.1,31.2,56.6,44.7,25.1,97,85,67,30.25,29.88,5,1,9,0.48
2013-12-24,36.8,28.5,20.0,26.9,18.9,8.1,87,68,48,30.50,30.21,8,2,11,0.00
2013-12-25,30.1,23.2,15.2,15.4,12.0,8.4,79,63,49,30.59,30.36,4,2,8,0.00
2013-12-26,42.3,30.8,24.3,26.9,19.8,15.2,78,64,46,30.36,30.23,6,2,10,0.00
2013-12-27,49.7,32.2,18.7,24.5,18.9,15.2,91,62,26,30.42,30.31,8,1,10,0.00
2013-12-28,57.5,41.6,24.0,29.7,25.3,19.0,83,54,34,30.33,30.10,5,2,8,0.00
2013-12-29,47.6,42.5,38.9,42.8,36.6,25.8,97,82,43,30.10,29.56,5,1,6,0.83
2013-12-30,45.4,36.8,25.7,42.0,29.8,19.3,93,76,65,30.19,29.82,5,2,8,0.01
2013-12-31,37.8,29.7,21.8,27.1,19.3,15.4,77,65,47,30.33,30.11,10,2,16,0.00
2014-1-1,44.8,30.7,18.2,27.0,22.3,14.8,90,72,47,30.39,30.13,6,1,7,0.00
2014-1-2,34.5,29.2,25.1,29.6,26.2,22.1,94,89,81,30.13,29.67,2,0,4,0.01